Location: Unspecified
(41.1637°N, 24.2901°E)
Time: 23:28:45
(UTC+01:00)

ISS - Pass Details

Date: 09 November 2019
Orbit: 412 x 421 km, 51.6° (Epoch: 15 November)

Event Time Altitude Azimuth Distance (km) Brightness Sun altitude
Exits shadow 04:13:52 25° 8° (N) 885 -2.1 -20.7°
Maximum altitude 04:14:20 26° 23° (NNE) 863 -2.0 -20.7°
Drops below altitude 10° 04:17:14 10° 83° (E) 1,501 0.2 -20.1°
Sets 04:19:33 0° 96° (E) 2,361 1.7 -19.7°
